QPF
0.05 0.06 0.05 0.04 0.04 0.04 0.05 0.06 0.06 0.04 0.03 0.03 0.02 0.03 0.02 0.02 0.02 0.01 0.02 0.02 0.02 0.01 0.01 0.01 0.01 0.01 0.02 0.01 0.01 0.01 0.01 0.01 0.00 0.00 0.00 0.00 0.00 0.01 0.01 0.02 0.02 0.02 0.03
0.04 0.05 0.05 0.03 0.02 0.02 0.03 0.05 0.05 0.05 0.03 0.03 0.03 0.02 0.02 0.02 0.02 0.02 0.01 0.01 0.01 0.01 0.01 0.01 0.02 0.02 0.02 0.01 0.01 0.01 0.01 0.00 0.00 0.00 0.00 0.00 0.00 0.01 0.01 0.01 0.02 0.02 0.02
0.04 0.04 0.03 0.03 0.03 0.01 0.01 0.02 0.03 0.04 0.03 0.03 0.03 0.02 0.02 0.02 0.02 0.02 0.02 0.02 0.01 0.01 0.01 0.01 0.02 0.02 0.02 0.01 0.01 0.01 0.01 0.00 0.00 0.00 0.00 0.00 0.00 0.00 0.01 0.01 0.01 0.02 0.02
0.03 0.04 0.03 0.02 0.02 0.01 0.01 0.02 0.02 0.03 0.03 0.02 0.02 0.02 0.02 0.02 0.02 0.02 0.02 0.02 0.01 0.01 0.01 0.01 0.02 0.02 0.02 0.02 0.01 0.01 0.01 0.01 0.01 0.01 0.01 0.00 0.00 0.00 0.01 0.01 0.01 0.01 0.02
0.02 0.03 0.05 0.03 0.02 0.01 0.01 0.01 0.02 0.03 0.02 0.02 0.02 0.02 0.02 0.02 0.02 0.02 0.02 0.02 0.01 0.01 0.01 0.01 0.02 0.02 0.02 0.02 0.02 0.01 0.01 0.01 0.01 0.01 0.01 0.01 0.00 0.01 0.01 0.01 0.01 0.01 0.02
0.02 0.02 0.04 0.04 0.02 0.02 0.01 0.01 0.01 0.02 0.02 0.02 0.02 0.01 0.01 0.01 0.02 0.02 0.02 0.02 0.01 0.01 0.01 0.01 0.02 0.02 0.02 0.02 0.02 0.02 0.02 0.01 0.01 0.01 0.01 0.01 0.01 0.01 0.01 0.02 0.02 0.02 0.02
0.02 0.02 0.03 0.04 0.03 0.02 0.02 0.02 0.02 0.01 0.01 0.01 0.02 0.01 0.02 0.02 0.01 0.01 0.01 0.01 0.01 0.01 0.01 0.01 0.02 0.02 0.02 0.02 0.02 0.02 0.02 0.01 0.01 0.01 0.01 0.01 0.01 0.01 0.01 0.02 0.02 0.02 0.02
0.01 0.02 0.03 0.03 0.03 0.03 0.03 0.02 0.02 0.01 0.01 0.01 0.01 0.01 0.02 0.02 0.02 0.01 0.01 0.01 0.01 0.01 0.01 0.01 0.01 0.01 0.01 0.01 0.02 0.02 0.02 0.02 0.01 0.01 0.01 0.01 0.01 0.01 0.02 0.02 0.02 0.03 0.02
0.01 0.01 0.02 0.03 0.02 0.02 0.02 0.02 0.02 0.02 0.01 0.01 0.01 0.01 0.01 0.01 0.01 0.01 0.01 0.01 0.01 0.01 0.01 0.01 0.01 0.01 0.02 0.02 0.02 0.01 0.01 0.01 0.01 0.01 0.01 0.01 0.01 0.01 0.01 0.02 0.02 0.03 0.02
0.01 0.01 0.02 0.02 0.02 0.01 0.01 0.01 0.01 0.02 0.02 0.01 0.01 0.01 0.01 0.01 0.01 0.01 0.01 0.00 0.00 0.00 0.00 0.00 0.00 0.01 0.01 0.02 0.02 0.02 0.01 0.01 0.01 0.00 0.00 0.01 0.00 0.00 0.01 0.01 0.02 0.03 0.03
0.01 0.01 0.01 0.02 0.02 0.01 0.01 0.01 0.01 0.01 0.01 0.02 0.02 0.01 0.01 0.00 0.00 0.00 0.00 0.00 0.00 0.00 0.00 0.00 0.00 0.00 0.01 0.01 0.01 0.01 0.01 0.01 0.01 0.01 0.00 0.01 0.01 0.01 0.00 0.01 0.01 0.02 0.03
0.02 0.02 0.01 0.01 0.01 0.01 0.01 0.01 0.01 0.01 0.01 0.01 0.01 0.01 0.01 0.00 0.00 0.00 0.00 0.00 0.00 0.00 0.00 0.00 0.00 0.00 0.01 0.02 0.01 0.01 0.02 0.01 0.01 0.01 0.01 0.01 0.01 0.01 0.01 0.01 0.01 0.01 0.02
0.03 0.03 0.03 0.02 0.02 0.02 0.02 0.02 0.01 0.01 0.01 0.01 0.01 0.01 0.00 0.00 0.00 0.00 0.00 0.00 0.00 0.00 0.00 0.00 0.00 0.00 0.01 0.01 0.01 0.01 0.01 0.01 0.01 0.01 0.01 0.01 0.01 0.01 0.01 0.01 0.01 0.01 0.01
0.03 0.03 0.04 0.03 0.03 0.02 0.02 0.03 0.02 0.02 0.02 0.01 0.01 0.01 0.00 0.00 0.00 0.00 0.00 0.00 0.00 0.00 0.00 0.00 0.00 0.01 0.01 0.01 0.01 0.01 0.01 0.01 0.01 0.01 0.01 0.01 0.01 0.01 0.01 0.01 0.01 0.01 0.01
0.03 0.03 0.02 0.02 0.02 0.02 0.02 0.02 0.02 0.02 0.02 0.02 0.02 0.01 0.01 0.00 0.00 0.00 0.01 0.01 0.01 0.01 0.01 0.01 0.01 0.01 0.01 0.01 0.01 0.01 0.01 0.01 0.01 0.01 0.01 0.02 0.01 0.01 0.01 0.01 0.01 0.01 0.01
0.02 0.02 0.02 0.02 0.01 0.01 0.01 0.01 0.01 0.01 0.01 0.01 0.01 0.01 0.01 0.01 0.01 0.01 0.01 0.01 0.01 0.01 0.02 0.01 0.01 0.00 0.01 0.01 0.01 0.01 0.01 0.01 0.01 0.01 0.02 0.01 0.01 0.01 0.01 0.01 0.01 0.01 0.01
0.02 0.01 0.01 0.02 0.02 0.01 0.01 0.01 0.01 0.01 0.00 0.00 0.00 0.01 0.01 0.01 0.01 0.01 0.01 0.01 0.01 0.01 0.01 0.01 0.00 0.00 0.01 0.01 0.01 0.01 0.01 0.01 0.01 0.02 0.02 0.02 0.02 0.02 0.02 0.02 0.01 0.01 0.01
0.01 0.01 0.01 0.01 0.01 0.01 0.01 0.01 0.01 0.01 0.01 0.01 0.00 0.00 0.00 0.00 0.00 0.00 0.01 0.01 0.00 0.00 0.00 0.00 0.01 0.01 0.01 0.01 0.01 0.01 0.01 0.01 0.02 0.02 0.02 0.02 0.02 0.02 0.02 0.02 0.02 0.02 0.02
0.01 0.01 0.01 0.01 0.01 0.01 0.01 0.01 0.01 0.00 0.00 0.00 0.00 0.00 0.00 0.00 0.00 0.00 0.01 0.01 0.01 0.01 0.00 0.01 0.01 0.01 0.01 0.02 0.02 0.02 0.02 0.02 0.02 0.02 0.02 0.02 0.02 0.02 0.02 0.02 0.02 0.02 0.02
0.01 0.01 0.01 0.01 0.01 0.01 0.00 0.00 0.00 0.00 0.00 0.00 0.00 0.00 0.00 0.01 0.01 0.01 0.00 0.01 0.01 0.01 0.01 0.01 0.01 0.01 0.02 0.02 0.02 0.02 0.02 0.02 0.02 0.02 0.02 0.02 0.02 0.02 0.02 0.02 0.02 0.02 0.02
0.01 0.01 0.01 0.01 0.01 0.01 0.01 0.01 0.01 0.01 0.00 0.00 0.00 0.00 0.01 0.01 0.01 0.01 0.01 0.01 0.01 0.01 0.01 0.01 0.01 0.01 0.02 0.02 0.02 0.02 0.02 0.02 0.02 0.02 0.02 0.02 0.02 0.02 0.02 0.02 0.02 0.02 0.02
0.01 0.01 0.01 0.01 0.01 0.01 0.01 0.01 0.01 0.01 0.00 0.01 0.01 0.01 0.01 0.01 0.01 0.01 0.01 0.01 0.01 0.01 0.01 0.01 0.01 0.01 0.01 0.02 0.02 0.02 0.02 0.02 0.02 0.02 0.02 0.02 0.02 0.02 0.02 0.02 0.02 0.02 0.02
0.02 0.01 0.01 0.01 0.01 0.01 0.01 0.01 0.01 0.01 0.01 0.01 0.01 0.01 0.01 0.01 0.01 0.01 0.01 0.01 0.01 0.01 0.01 0.01 0.01 0.01 0.01 0.01 0.02 0.02 0.02 0.02 0.02 0.02 0.02 0.02 0.02 0.02 0.02 0.02 0.02 0.02 0.02
0.02 0.02 0.02 0.01 0.01 0.01 0.01 0.01 0.01 0.01 0.01 0.01 0.01 0.01 0.01 0.01 0.01 0.01 0.01 0.01 0.01 0.01 0.01 0.01 0.01 0.01 0.01 0.01 0.02 0.02 0.02 0.02 0.02 0.02 0.02 0.02 0.02 0.02 0.02 0.02 0.02 0.02 0.02
0.02 0.02 0.02 0.02 0.02 0.01 0.01 0.01 0.01 0.01 0.01 0.01 0.01 0.01 0.01 0.01 0.01 0.01 0.01 0.01 0.01 0.01 0.01 0.01 0.01 0.01 0.01 0.01 0.01 0.01 0.01 0.01 0.02 0.02 0.02 0.03 0.02 0.02 0.02 0.03 0.02 0.02 0.02
0.01 0.01 0.02 0.02 0.02 0.01 0.01 0.01 0.01 0.01 0.01 0.01 0.01 0.01 0.01 0.01 0.01 0.01 0.01 0.01 0.01 0.01 0.01 0.01 0.01 0.01 0.01 0.01 0.01 0.01 0.01 0.01 0.01 0.02 0.03 0.03 0.03 0.02 0.02 0.03 0.03 0.02 0.02
MSLP
1008.17 1008.28 1008.34 1008.38 1008.41 1008.47 1008.59 1008.79 1009.07 1009.45 1009.93 1010.47 1011.07 1011.70 1012.34 1012.98 1013.61 1014.23 1014.82 1015.40 1015.96 1016.49 1016.98 1017.44 1017.85 1018.22 1018.55 1018.86 1019.17 1019.49 1019.85 1020.24 1020.66 1021.11 1021.55 1021.97 1022.35 1022.66 1022.91 1023.10 1023.24 1023.35 1023.46
1008.35 1008.50 1008.62 1008.71 1008.81 1008.92 1009.07 1009.28 1009.57 1009.93 1010.37 1010.88 1011.43 1012.02 1012.63 1013.25 1013.88 1014.50 1015.12 1015.72 1016.30 1016.85 1017.35 1017.79 1018.18 1018.51 1018.79 1019.04 1019.29 1019.55 1019.84 1020.18 1020.56 1020.98 1021.41 1021.82 1022.20 1022.53 1022.80 1023.01 1023.17 1023.30 1023.42
1008.57 1008.72 1008.87 1009.00 1009.14 1009.29 1009.48 1009.72 1010.02 1010.38 1010.80 1011.28 1011.80 1012.35 1012.93 1013.53 1014.14 1014.76 1015.39 1016.00 1016.60 1017.16 1017.68 1018.13 1018.51 1018.82 1019.08 1019.30 1019.51 1019.73 1019.98 1020.27 1020.60 1020.97 1021.37 1021.76 1022.12 1022.44 1022.71 1022.92 1023.09 1023.22 1023.33
1008.85 1008.97 1009.11 1009.26 1009.43 1009.62 1009.85 1010.12 1010.45 1010.82 1011.24 1011.70 1012.20 1012.72 1013.26 1013.83 1014.41 1015.01 1015.62 1016.23 1016.83 1017.40 1017.92 1018.38 1018.77 1019.09 1019.36 1019.58 1019.77 1019.97 1020.20 1020.45 1020.74 1021.07 1021.41 1021.75 1022.08 1022.37 1022.61 1022.81 1022.96 1023.08 1023.18
1009.16 1009.23 1009.35 1009.50 1009.69 1009.92 1010.19 1010.51 1010.87 1011.27 1011.70 1012.16 1012.64 1013.13 1013.64 1014.16 1014.70 1015.26 1015.83 1016.41 1016.99 1017.55 1018.07 1018.54 1018.95 1019.29 1019.58 1019.82 1020.03 1020.24 1020.45 1020.68 1020.93 1021.21 1021.50 1021.79 1022.06 1022.30 1022.51 1022.68 1022.81 1022.90 1022.97
1009.46 1009.47 1009.56 1009.71 1009.92 1010.19 1010.51 1010.87 1011.28 1011.72 1012.17 1012.64 1013.11 1013.58 1014.05 1014.53 1015.02 1015.52 1016.04 1016.57 1017.11 1017.64 1018.15 1018.63 1019.05 1019.42 1019.75 1020.02 1020.26 1020.48 1020.70 1020.92 1021.14 1021.38 1021.61 1021.84 1022.05 1022.25 1022.41 1022.53 1022.63 1022.70 1022.74
1009.67 1009.63 1009.69 1009.84 1010.08 1010.39 1010.77 1011.19 1011.66 1012.14 1012.63 1013.12 1013.60 1014.06 1014.50 1014.94 1015.37 1015.82 1016.28 1016.76 1017.25 1017.75 1018.24 1018.70 1019.14 1019.54 1019.89 1020.20 1020.47 1020.71 1020.94 1021.15 1021.35 1021.55 1021.73 1021.91 1022.06 1022.20 1022.31 1022.39 1022.46 1022.49 1022.50
1009.73 1009.66 1009.71 1009.88 1010.15 1010.51 1010.95 1011.44 1011.97 1012.51 1013.05 1013.57 1014.07 1014.53 1014.96 1015.37 1015.77 1016.18 1016.59 1017.02 1017.47 1017.93 1018.39 1018.84 1019.28 1019.69 1020.06 1020.39 1020.69 1020.95 1021.18 1021.38 1021.56 1021.72 1021.86 1021.99 1022.09 1022.18 1022.24 1022.29 1022.31 1022.32 1022.29
1009.63 1009.55 1009.61 1009.81 1010.12 1010.54 1011.05 1011.61 1012.20 1012.81 1013.40 1013.96 1014.49 1014.97 1015.41 1015.82 1016.21 1016.59 1016.98 1017.37 1017.79 1018.21 1018.65 1019.09 1019.51 1019.92 1020.29 1020.63 1020.93 1021.20 1021.42 1021.61 1021.77 1021.90 1022.01 1022.09 1022.15 1022.19 1022.21 1022.22 1022.21 1022.18 1022.13
1009.38 1009.32 1009.41 1009.66 1010.03 1010.52 1011.09 1011.72 1012.37 1013.04 1013.69 1014.30 1014.86 1015.38 1015.84 1016.27 1016.67 1017.05 1017.43 1017.82 1018.21 1018.62 1019.03 1019.44 1019.85 1020.23 1020.59 1020.92 1021.21 1021.46 1021.68 1021.85 1021.98 1022.08 1022.16 1022.20 1022.22 1022.23 1022.22 1022.19 1022.15 1022.09 1022.00
1009.04 1009.03 1009.18 1009.48 1009.92 1010.48 1011.12 1011.81 1012.52 1013.24 1013.93 1014.59 1015.19 1015.74 1016.25 1016.71 1017.13 1017.53 1017.93 1018.31 1018.70 1019.09 1019.49 1019.87 1020.25 1020.61 1020.94 1021.24 1021.51 1021.74 1021.92 1022.07 1022.18 1022.26 1022.30 1022.32 1022.31 1022.28 1022.24 1022.17 1022.10 1022.00 1021.87
1008.70 1008.76 1008.98 1009.36 1009.87 1010.49 1011.19 1011.93 1012.70 1013.45 1014.18 1014.86 1015.50 1016.09 1016.62 1017.11 1017.57 1018.00 1018.41 1018.81 1019.21 1019.59 1019.96 1020.32 1020.67 1020.99 1021.29 1021.55 1021.78 1021.98 1022.14 1022.26 1022.35 1022.40 1022.42 1022.41 1022.37 1022.31 1022.23 1022.13 1022.01 1021.86 1021.69
1008.46 1008.59 1008.90 1009.36 1009.94 1010.63 1011.38 1012.16 1012.95 1013.72 1014.46 1015.16 1015.81 1016.41 1016.97 1017.48 1017.97 1018.42 1018.85 1019.26 1019.65 1020.03 1020.38 1020.72 1021.03 1021.31 1021.57 1021.80 1021.99 1022.16 1022.29 1022.39 1022.46 1022.49 1022.49 1022.45 1022.39 1022.29 1022.17 1022.02 1021.84 1021.64 1021.41
1008.37 1008.60 1009.00 1009.53 1010.18 1010.92 1011.70 1012.51 1013.31 1014.08 1014.81 1015.50 1016.14 1016.74 1017.30 1017.82 1018.31 1018.77 1019.21 1019.62 1020.01 1020.37 1020.71 1021.01 1021.29 1021.54 1021.76 1021.95 1022.12 1022.25 1022.37 1022.45 1022.49 1022.51 1022.49 1022.42 1022.32 1022.18 1022.01 1021.80 1021.56 1021.29 1020.99
1008.51 1008.82 1009.29 1009.90 1010.61 1011.38 1012.18 1012.99 1013.78 1014.54 1015.24 1015.90 1016.51 1017.08 1017.62 1018.12 1018.60 1019.05 1019.48 1019.88 1020.26 1020.60 1020.91 1021.19 1021.43 1021.65 1021.84 1022.00 1022.14 1022.26 1022.35 1022.42 1022.45 1022.45 1022.40 1022.30 1022.16 1021.97 1021.73 1021.45 1021.13 1020.79 1020.43
1008.88 1009.27 1009.80 1010.45 1011.20 1011.99 1012.80 1013.60 1014.36 1015.08 1015.74 1016.36 1016.92 1017.45 1017.94 1018.41 1018.86 1019.29 1019.69 1020.07 1020.42 1020.74 1021.02 1021.27 1021.48 1021.67 1021.83 1021.97 1022.09 1022.20 1022.27 1022.32 1022.33 1022.31 1022.23 1022.09 1021.89 1021.64 1021.33 1020.97 1020.58 1020.16 1019.73
1009.47 1009.91 1010.48 1011.16 1011.92 1012.71 1013.50 1014.27 1015.00 1015.67 1016.29 1016.85 1017.36 1017.84 1018.28 1018.71 1019.12 1019.51 1019.88 1020.23 1020.55 1020.84 1021.09 1021.31 1021.50 1021.66 1021.80 1021.91 1022.01 1022.09 1022.15 1022.17 1022.16 1022.10 1021.98 1021.79 1021.53 1021.21 1020.83 1020.39 1019.92 1019.44 1018.95
1010.25 1010.71 1011.30 1011.98 1012.73 1013.50 1014.26 1014.99 1015.67 1016.29 1016.85 1017.36 1017.82 1018.25 1018.65 1019.04 1019.41 1019.77 1020.11 1020.42 1020.71 1020.97 1021.19 1021.38 1021.53 1021.66 1021.77 1021.85 1021.92 1021.97 1022.00 1021.99 1021.94 1021.83 1021.65 1021.41 1021.09 1020.69 1020.24 1019.73 1019.19 1018.65 1018.11
1011.19 1011.65 1012.22 1012.88 1013.59 1014.31 1015.03 1015.70 1016.33 1016.90 1017.41 1017.88 1018.30 1018.69 1019.06 1019.41 1019.75 1020.08 1020.40 1020.68 1020.94 1021.17 1021.35 1021.50 1021.62 1021.71 1021.78 1021.82 1021.85 1021.85 1021.83 1021.77 1021.67 1021.50 1021.27 1020.96 1020.57 1020.11 1019.58 1019.02 1018.43 1017.84 1017.28
1012.26 1012.69 1013.22 1013.83 1014.48 1015.14 1015.79 1016.41 1016.98 1017.50 1017.97 1018.39 1018.78 1019.15 1019.49 1019.83 1020.16 1020.47 1020.76 1021.02 1021.25 1021.44 1021.59 1021.70 1021.78 1021.81 1021.83 1021.81 1021.78 1021.72 1021.64 1021.51 1021.34 1021.11 1020.81 1020.43 1019.98 1019.47 1018.89 1018.28 1017.66 1017.05 1016.48
1013.41 1013.79 1014.26 1014.80 1015.38 1015.97 1016.55 1017.10 1017.61 1018.09 1018.51 1018.91 1019.28 1019.62 1019.96 1020.28 1020.60 1020.89 1021.17 1021.41 1021.62 1021.77 1021.88 1021.94 1021.96 1021.93 1021.88 1021.79 1021.68 1021.55 1021.39 1021.19 1020.94 1020.64 1020.28 1019.85 1019.35 1018.79 1018.19 1017.56 1016.92 1016.31 1015.75
1014.60 1014.92 1015.32 1015.78 1016.28 1016.79 1017.30 1017.78 1018.24 1018.66 1019.05 1019.42 1019.77 1020.10 1020.42 1020.74 1021.05 1021.33 1021.59 1021.81 1021.98 1022.09 1022.15 1022.15 1022.10 1022.01 1021.87 1021.71 1021.51 1021.30 1021.05 1020.78 1020.46 1020.10 1019.69 1019.22 1018.69 1018.11 1017.50 1016.87 1016.25 1015.65 1015.12
1015.74 1016.01 1016.35 1016.74 1017.16 1017.60 1018.04 1018.45 1018.85 1019.23 1019.58 1019.91 1020.24 1020.55 1020.86 1021.17 1021.45 1021.72 1021.95 1022.14 1022.27 1022.34 1022.34 1022.28 1022.16 1021.98 1021.77 1021.52 1021.24 1020.94 1020.62 1020.28 1019.91 1019.50 1019.05 1018.56 1018.03 1017.46 1016.86 1016.26 1015.66 1015.11 1014.61
1016.79 1017.02 1017.30 1017.64 1017.99 1018.37 1018.74 1019.10 1019.45 1019.77 1020.08 1020.38 1020.67 1020.96 1021.24 1021.52 1021.77 1022.01 1022.20 1022.35 1022.43 1022.45 1022.39 1022.26 1022.07 1021.82 1021.53 1021.20 1020.85 1020.49 1020.11 1019.71 1019.30 1018.87 1018.42 1017.93 1017.42 1016.88 1016.32 1015.76 1015.22 1014.71 1014.25
1017.68 1017.88 1018.13 1018.42 1018.74 1019.06 1019.39 1019.70 1019.99 1020.27 1020.54 1020.79 1021.04 1021.29 1021.53 1021.76 1021.98 1022.16 1022.31 1022.41 1022.44 1022.39 1022.28 1022.09 1021.84 1021.53 1021.17 1020.79 1020.38 1019.97 1019.55 1019.13 1018.71 1018.28 1017.84 1017.38 1016.91 1016.42 1015.92 1015.42 1014.94 1014.49 1014.09
1018.37 1018.57 1018.80 1019.07 1019.36 1019.65 1019.94 1020.21 1020.46 1020.70 1020.92 1021.13 1021.33 1021.52 1021.71 1021.88 1022.04 1022.18 1022.27 1022.31 1022.29 1022.19 1022.03 1021.79 1021.49 1021.14 1020.75 1020.32 1019.89 1019.45 1019.02 1018.59 1018.18 1017.77 1017.36 1016.95 1016.54 1016.12 1015.69 1015.27 1014.86 1014.48 1014.13
Thickness
5562 5561 5561 5560 5559 5558 5558 5557 5556 5556 5554 5553 5552 5551 5550 5549 5548 5547 5545 5543 5542 5540 5539 5537 5536 5534 5533 5530 5528 5526 5524 5522 5521 5521 5517 5515 5514 5513 5512 5510 5509 5508 5507
5554 5553 5552 5550 5550 5550 5549 5548 5547 5547 5546 5544 5543 5542 5540 5539 5538 5536 5535 5533 5531 5529 5528 5526 5524 5523 5521 5518 5517 5514 5512 5510 5508 5508 5506 5503 5502 5500 5499 5498 5496 5495 5494
5545 5544 5542 5541 5540 5540 5539 5539 5538 5538 5536 5535 5533 5532 5531 5529 5528 5527 5525 5523 5521 5519 5517 5515 5513 5511 5509 5507 5504 5502 5500 5498 5496 5494 5493 5491 5488 5487 5485 5484 5483 5482 5482
5537 5535 5534 5533 5532 5531 5530 5529 5529 5528 5527 5525 5524 5522 5521 5520 5518 5517 5515 5513 5511 5509 5507 5505 5502 5500 5498 5495 5492 5490 5487 5484 5481 5480 5479 5477 5475 5473 5470 5469 5469 5469 5468
5528 5527 5525 5525 5523 5522 5521 5520 5519 5518 5517 5515 5514 5512 5511 5509 5508 5506 5504 5502 5500 5497 5495 5493 5491 5488 5486 5483 5480 5477 5474 5470 5468 5466 5464 5463 5461 5458 5457 5456 5455 5455 5455
5518 5517 5516 5515 5513 5512 5511 5510 5509 5507 5506 5505 5503 5502 5500 5499 5498 5496 5494 5491 5488 5486 5483 5481 5478 5475 5473 5471 5468 5466 5463 5459 5455 5453 5451 5450 5449 5446 5444 5442 5440 5439 5441
5507 5506 5506 5505 5504 5502 5501 5499 5498 5497 5495 5494 5492 5491 5489 5488 5487 5485 5483 5480 5477 5474 5471 5469 5466 5464 5461 5458 5456 5454 5451 5448 5446 5442 5440 5439 5437 5435 5432 5430 5427 5425 5426
5496 5495 5495 5494 5493 5491 5489 5488 5487 5485 5484 5482 5481 5479 5478 5477 5475 5473 5470 5467 5465 5462 5459 5456 5454 5452 5448 5444 5442 5440 5438 5436 5434 5431 5429 5428 5425 5423 5420 5418 5416 5414 5414
5484 5484 5483 5482 5481 5479 5478 5476 5475 5473 5471 5470 5469 5467 5465 5464 5462 5460 5457 5453 5451 5448 5446 5443 5441 5439 5436 5432 5429 5427 5426 5424 5421 5419 5417 5415 5413 5411 5408 5404 5402 5400 5401
5472 5472 5472 5471 5469 5468 5466 5464 5463 5461 5459 5458 5456 5454 5453 5451 5449 5447 5444 5441 5438 5436 5433 5431 5428 5426 5424 5420 5417 5414 5413 5411 5409 5408 5405 5403 5401 5398 5395 5393 5391 5388 5386
5458 5459 5459 5458 5457 5456 5454 5452 5450 5448 5446 5445 5443 5441 5440 5438 5436 5434 5432 5429 5426 5424 5421 5419 5416 5414 5412 5409 5406 5403 5402 5399 5397 5394 5393 5391 5388 5385 5383 5381 5378 5376 5374
5444 5445 5444 5444 5443 5442 5440 5438 5436 5435 5433 5430 5429 5428 5427 5425 5424 5422 5420 5418 5415 5412 5410 5408 5406 5403 5401 5398 5395 5392 5390 5387 5384 5382 5380 5378 5376 5374 5372 5370 5367 5365 5363
5429 5430 5429 5429 5428 5428 5427 5425 5423 5422 5420 5418 5416 5415 5414 5413 5412 5410 5408 5406 5403 5400 5398 5397 5394 5392 5389 5387 5384 5381 5377 5374 5371 5369 5368 5367 5365 5363 5360 5358 5356 5354 5353
5414 5414 5414 5414 5413 5413 5413 5412 5411 5409 5408 5406 5405 5403 5402 5401 5400 5399 5397 5394 5392 5389 5387 5385 5383 5380 5377 5374 5372 5368 5365 5362 5360 5358 5357 5355 5353 5351 5349 5346 5344 5343 5343
5400 5400 5399 5399 5399 5399 5398 5398 5398 5398 5397 5396 5395 5393 5392 5391 5390 5389 5387 5384 5382 5378 5376 5373 5369 5366 5363 5361 5358 5356 5353 5351 5349 5347 5345 5344 5342 5341 5339 5336 5334 5333 5332
5385 5385 5385 5385 5385 5385 5385 5386 5386 5386 5386 5386 5385 5384 5383 5382 5381 5379 5377 5375 5372 5369 5365 5361 5358 5354 5352 5350 5348 5345 5343 5341 5339 5337 5335 5334 5333 5332 5330 5328 5325 5324 5323
5370 5370 5371 5372 5372 5373 5373 5374 5373 5374 5374 5374 5374 5373 5372 5372 5371 5369 5367 5365 5361 5358 5353 5350 5348 5345 5343 5340 5338 5336 5334 5333 5331 5329 5327 5325 5324 5323 5321 5320 5318 5316 5315
5357 5358 5359 5359 5360 5360 5360 5361 5362 5362 5362 5361 5361 5362 5361 5361 5359 5358 5356 5353 5349 5346 5343 5341 5339 5336 5334 5331 5329 5327 5325 5324 5322 5321 5319 5318 5316 5315 5314 5312 5311 5309 5308
5344 5345 5346 5346 5347 5348 5348 5349 5349 5350 5350 5349 5349 5349 5349 5348 5347 5345 5344 5340 5338 5336 5333 5331 5329 5327 5325 5323 5321 5319 5317 5316 5315 5313 5312 5311 5309 5308 5307 5305 5303 5302 5300
5331 5333 5334 5334 5335 5335 5336 5337 5337 5337 5337 5337 5337 5337 5336 5335 5334 5332 5331 5329 5328 5327 5325 5323 5321 5319 5317 5315 5313 5311 5310 5309 5307 5306 5306 5304 5303 5301 5300 5298 5297 5295 5294
5319 5320 5322 5322 5323 5323 5324 5324 5325 5325 5325 5325 5324 5325 5325 5323 5322 5321 5320 5319 5318 5317 5316 5314 5312 5311 5309 5307 5306 5305 5303 5302 5301 5300 5299 5298 5297 5295 5294 5292 5291 5289 5288
5307 5308 5309 5310 5310 5311 5312 5312 5312 5312 5312 5312 5313 5313 5313 5312 5311 5311 5310 5310 5309 5307 5306 5305 5304 5303 5302 5300 5299 5298 5297 5296 5295 5294 5293 5292 5291 5290 5288 5286 5285 5283 5282
5296 5297 5297 5298 5299 5300 5300 5300 5300 5300 5300 5300 5300 5301 5301 5301 5300 5300 5300 5300 5299 5298 5297 5296 5296 5295 5294 5293 5293 5292 5291 5291 5290 5289 5288 5287 5285 5284 5282 5281 5279 5278 5277
5285 5286 5286 5287 5287 5288 5288 5288 5288 5288 5289 5289 5289 5290 5290 5290 5290 5290 5290 5290 5289 5289 5289 5288 5288 5288 5287 5287 5286 5286 5286 5286 5285 5284 5283 5282 5280 5278 5277 5275 5274 5273 5272
5275 5275 5276 5276 5276 5276 5277 5277 5277 5277 5278 5278 5279 5279 5279 5279 5280 5280 5280 5280 5281 5281 5281 5281 5281 5281 5281 5281 5281 5281 5281 5281 5280 5279 5278 5277 5275 5273 5272 5270 5269 5268 5267
5265 5265 5265 5266 5266 5266 5267 5267 5268 5268 5268 5269 5269 5269 5269 5269 5270 5271 5271 5272 5272 5273 5274 5274 5275 5275 5275 5275 5276 5276 5276 5276 5276 5275 5274 5272 5271 5269 5267 5266 5265 5264 5263